Weather Roundup
Issued by NWS Chicago, IL

Home | Current Version | Previous Version | Text Only | Print | Product List | Glossary Off
Versions: 1 2 3 4 5 6 7 8 9 10 11 12 13 14 15 16 17 18 19 20 21 22 23 24 25 26 27 28 29 30 31 32 33 34 35 36 37 38 39 40 41 42 43 44 45 46 47 48 49 50

401
NZUS59 KLOT 272004
HRRLOT

CHICAGO AREA WEATHER ROUNDUP
NATIONAL WEATHER SERVICE CHICAGO/ROMEOVILLE IL
300 PM CDT FRI MAY 27 2016

NOTE: "FAIR" INDICATES FEW OR NO CLOUDS BELOW 12,000 FEET WITH NO
SIGNIFICANT WEATHER AND/OR OBSTRUCTIONS TO VISIBILITY.

* THESE STATIONS ARE NOT UNDER NWS QUALITY CONTROL. THEY ALSO MAY NOT
  REPORT WEATHER SUCH AS PRECIPITATION OR FOG.

ILZ005-006-012>014-019>023-272100-
NORTHEAST ILLINOIS

CITY           SKY/WX    TMP DP  RH WIND       PRES   REMARKS
OHARE          CLOUDY    79  64  60 S17G25    29.84F HX  81
MIDWAY         CLOUDY    81  64  56 S14G20    29.84F HX  82
AURORA         LGT RAIN  76  68  76 S12       29.84S
LANSING*       CLOUDY    82  64  53 S17G28    29.86F HX  83
WAUKEGAN       LGT RAIN  72  65  78 SE12G18   29.85F
DUPAGE AIRPORT LGT RAIN  74  66  76 S7        29.84S
WHEELING       CLOUDY    80  63  55 S21       29.85F HX  81
$$

WIZ051-052-058>065-066-070>072-272100-
SOUTHEAST WISCONSIN

CITY           SKY/WX    TMP DP  RH WIND       PRES   REMARKS
MILWAUKEE      CLOUDY    75  65  70 SE16      29.85S
KENOSHA*       PTSUNNY   74  64  71 SE18      29.86S
RACINE*        MOSUNNY   72  62  71 SE16G23   29.87F
WAUKESHA       PTSUNNY   79  63  57 SE14      29.84F HX  80
$$

INZ001>003-010>013-019-020-272100-
NORTHWEST INDIANA

CITY           SKY/WX    TMP DP  RH WIND       PRES   REMARKS
GARY*          PTSUNNY   84  70  61 S9G21     29.86F HX  88
MICHIGAN CITY* NOT AVBL
RENSSELAER*    NOT AVBL
VALPARAISO     PTSUNNY   85  61  44 S17G24    29.87F HX  85
$$

LMZ740>746-272100-
SOUTHERN LAKE MICHIGAN

STATION/POSITION TIME  SKY/WX   TEMP WIND        PRES    VSBY
                                AIR  DIR/SP/G
                 (UTC)          (F)  (DEG/KT/KT) (MB)    (MI)
HARRISON CRIB    1900            72  180/  9/ 12   N/A
BURNHAM HARBOR   2000            78  170/  6/ 11   N/A
CALUMET HARBOR   1900            80  180/ 10/ 17 1010.9F
BURNS HARBOR     1900            81  190/  8/ 14 1012.2F
MICHIGAN CITY    1900            80  160/ 15/ 18   N/A
$$

ABBREVIATIONS USED IN REMARKS
   TC - TEMPERATURE IN CELSIUS
  WCI - WIND CHILL INDEX
   HX - HEAT INDEX
  VSB - VISIBILITY
$$




USA.gov is the U.S. government's official web portal to all federal, state and local government web resources and services.